North Bend, OR

12:13 AM PST on December 03, 2016 (GMT -0800)
North Bend Municipal

Weather History for KOTH - September, 2015

Change the Weather History Date:

Thursday, September 17, 2015

  Actual Average Record
Temperature  
Mean Temperature 62 °F 57 °F  
Max Temperature 68 °F 65 °F 89 °F (1913)
Min Temperature 55 °F 50 °F 38 °F (1908)
Degree Days  
Heating Degree Days 3 8  
Month to date heating degree days 90 116  
Since 1 July heating degree days 268 495  
Cooling Degree Days 0 0  
Month to date cooling degree days 0 0  
Year to date cooling degree days 14 1  
Growing Degree Days 12 (Base 50)    
Moisture  
Dew Point 59 °F    
Average Humidity 92    
Maximum Humidity 100    
Minimum Humidity 78    
Precipitation  
Precipitation 0.00 in 0.05 in 1.92 in (2004)
Month to date precipitation 0.00 0.71  
Year to date precipitation 19.44 37.95  
Sea Level Pressure  
Sea Level Pressure 30.06 in    
Wind  
Wind Speed 8 mph (SW)    
Max Wind Speed 16 mph    
Max Gust Speed 24 mph    
Visibility 10 miles    
Events      
T = Trace of Precipitation, MM = Missing Value Source: NWS Daily Summary

Daily Weather History Graph

Daily Weather History Graph

Search for Another Location

Airport or City:

Trip Planner

Search our weather history database for the weather conditions in past years. The results will help you decide how hot, cold, wet, or windy it might be!

Date:

Astronomy

Sep. 17, 2015 Rise Set
Actual Time 6:58 AM PDT 7:23 PM PDT
Civil Twilight 6:29 AM PDT 7:52 PM PDT
Nautical Twilight 5:56 AM PDT 8:25 PM PDT
Astronomical Twilight 5:21 AM PDT 9:00 PM PDT
Moon 11:07 AM PDT (9/17) 9:45 PM PDT (9/17)
Length of Visible Light 13h 22m
Length of Day
12h 25m
Waxing Crescent, 17% of the Moon is Illuminated
Sep 17
Waxing Crescent
Sep 21
First Quarter
Sep 27
Full
Oct 4
Last Quarter
Oct 12
New

Hourly Weather History & Observations

Time (PDT) Temp. Dew Point Humidity Pressure Visibility Wind Dir Wind Speed Gust Speed Precip Events Conditions
12:15 AM 57.2 °F 57.2 °F 100% 29.89 in 4.0 mi South 12.7 mph 16.1 mph N/A   Overcast
12:35 AM 57.2 °F 57.2 °F 100% 29.90 in 10.0 mi South 12.7 mph 19.6 mph N/A   Overcast
12:55 AM 60.8 °F 59.0 °F 94% 29.90 in 10.0 mi SSW 16.1 mph 24.2 mph N/A   Overcast
1:15 AM 60.8 °F 59.0 °F 94% 29.90 in 10.0 mi SSW 13.8 mph 24.2 mph N/A   Overcast
1:35 AM 60.8 °F 59.0 °F 94% 29.91 in 10.0 mi SSW 15.0 mph 21.9 mph N/A   Overcast
1:55 AM 60.8 °F 59.0 °F 94% 29.91 in 10.0 mi SSW 12.7 mph 20.7 mph N/A   Overcast
2:15 AM 60.8 °F 59.0 °F 94% 29.91 in 10.0 mi SSW 11.5 mph - N/A   Overcast
2:35 AM 60.8 °F 59.0 °F 94% 29.91 in 8.0 mi SSW 10.4 mph 17.3 mph N/A   Overcast
2:55 AM 59.0 °F 59.0 °F 100% 29.92 in 8.0 mi SSW 11.5 mph - N/A   Overcast
3:15 AM 59.0 °F 59.0 °F 100% 29.92 in 7.0 mi SW 8.1 mph - N/A   Overcast
3:35 AM 60.8 °F 59.0 °F 94% 29.93 in 10.0 mi SW 12.7 mph 18.4 mph N/A   Overcast
3:55 AM 60.8 °F 59.0 °F 94% 29.94 in 10.0 mi SW 10.4 mph 17.3 mph N/A   Overcast
4:15 AM 60.8 °F 60.8 °F 100% 29.94 in 10.0 mi SW 11.5 mph 16.1 mph N/A   Overcast
4:35 AM 60.8 °F 60.8 °F 100% 29.94 in 10.0 mi SW 6.9 mph - N/A   Overcast
4:55 AM 60.8 °F 59.0 °F 94% 29.94 in 10.0 mi SSW 8.1 mph - N/A   Overcast
5:15 AM 60.8 °F 59.0 °F 94% 29.95 in 10.0 mi SW 5.8 mph - N/A   Overcast
5:35 AM 60.8 °F 59.0 °F 94% 29.96 in 10.0 mi SW 6.9 mph - N/A   Overcast
5:55 AM 60.8 °F 59.0 °F 94% 29.96 in 10.0 mi SW 8.1 mph - N/A   Overcast
6:15 AM 60.8 °F 59.0 °F 94% 29.97 in 10.0 mi SSW 6.9 mph - N/A   Mostly Cloudy
6:35 AM 60.8 °F 59.0 °F 94% 29.98 in 10.0 mi SSW 6.9 mph - N/A   Mostly Cloudy
6:55 AM 60.8 °F 59.0 °F 94% 29.99 in 10.0 mi South 6.9 mph - N/A   Overcast
7:15 AM 60.8 °F 59.0 °F 94% 30.00 in 10.0 mi SSW 6.9 mph - N/A   Mostly Cloudy
7:35 AM 60.8 °F 59.0 °F 94% 30.01 in 10.0 mi SSW 6.9 mph - N/A   Overcast
7:55 AM 59.0 °F 59.0 °F 100% 30.01 in 10.0 mi South 9.2 mph - N/A   Overcast
8:15 AM 60.8 °F 59.0 °F 94% 30.02 in 10.0 mi South 8.1 mph - N/A   Overcast
8:35 AM 60.8 °F 59.0 °F 94% 30.03 in 7.0 mi SSW 8.1 mph - N/A   Overcast
8:55 AM 60.8 °F 59.0 °F 94% 30.04 in 10.0 mi SSW 4.6 mph - N/A   Mostly Cloudy
9:15 AM 60.8 °F 59.0 °F 94% 30.04 in 10.0 mi SSW 6.9 mph - N/A   Overcast
9:35 AM 60.8 °F 60.8 °F 100% 30.05 in 8.0 mi South 4.6 mph - N/A   Overcast
9:55 AM 60.8 °F 60.8 °F 100% 30.05 in 4.0 mi Calm Calm - N/A   Overcast
10:15 AM 60.8 °F 60.8 °F 100% 30.06 in 10.0 mi SW 3.5 mph - N/A   Mostly Cloudy
10:35 AM 60.8 °F 59.0 °F 94% 30.07 in 10.0 mi SW 10.4 mph - N/A   Mostly Cloudy
10:55 AM 62.6 °F 60.8 °F 94% 30.08 in 10.0 mi SSW 8.1 mph - N/A   Mostly Cloudy
11:15 AM 64.4 °F 62.6 °F 94% 30.08 in 10.0 mi SW 10.4 mph 17.3 mph N/A   Mostly Cloudy
11:35 AM 64.4 °F 60.8 °F 88% 30.08 in 10.0 mi WSW 11.5 mph - N/A   Mostly Cloudy
11:55 AM 64.4 °F 60.8 °F 88% 30.09 in 10.0 mi SW 11.5 mph 17.3 mph N/A   Mostly Cloudy
12:15 PM 66.2 °F 60.8 °F 83% 30.09 in 10.0 mi WSW 13.8 mph 19.6 mph N/A   Mostly Cloudy
12:35 PM 66.2 °F 60.8 °F 83% 30.10 in 10.0 mi SW 11.5 mph 19.6 mph N/A   Mostly Cloudy
12:55 PM 66.2 °F 60.8 °F 83% 30.10 in 10.0 mi WSW 12.7 mph 19.6 mph N/A   Mostly Cloudy
1:15 PM 66.2 °F 60.8 °F 83% 30.10 in 10.0 mi WSW 12.7 mph - N/A   Mostly Cloudy
1:35 PM 66.2 °F 60.8 °F 83% 30.10 in 10.0 mi WSW 13.8 mph - N/A   Mostly Cloudy
1:55 PM 66.2 °F 60.8 °F 83% 30.11 in 10.0 mi WSW 13.8 mph 19.6 mph N/A   Mostly Cloudy
2:15 PM 66.2 °F 60.8 °F 83% 30.11 in 10.0 mi WSW 12.7 mph - N/A   Scattered Clouds
2:35 PM 68.0 °F 60.8 °F 78% 30.12 in 10.0 mi WSW 12.7 mph 18.4 mph N/A   Mostly Cloudy
2:55 PM 66.2 °F 60.8 °F 83% 30.12 in 10.0 mi WSW 12.7 mph - N/A   Scattered Clouds
3:15 PM 68.0 °F 60.8 °F 78% 30.12 in 10.0 mi WSW 11.5 mph 19.6 mph N/A   Mostly Cloudy
3:35 PM 66.2 °F 60.8 °F 83% 30.12 in 10.0 mi WSW 11.5 mph - N/A   Overcast
3:55 PM 66.2 °F 60.8 °F 83% 30.13 in 10.0 mi WSW 9.2 mph - N/A   Overcast
4:15 PM 66.2 °F 60.8 °F 83% 30.13 in 10.0 mi WSW 10.4 mph - N/A   Overcast
4:35 PM 66.2 °F 60.8 °F 83% 30.13 in 10.0 mi WSW 9.2 mph - N/A   Overcast
4:55 PM 66.2 °F 59.0 °F 78% 30.13 in 10.0 mi WSW 9.2 mph - N/A   Overcast
5:15 PM 64.4 °F 60.8 °F 88% 30.14 in 10.0 mi WSW 8.1 mph - N/A   Overcast
5:35 PM 64.4 °F 60.8 °F 88% 30.14 in 10.0 mi West 8.1 mph - N/A   Overcast
5:55 PM 64.4 °F 60.8 °F 88% 30.14 in 10.0 mi West 8.1 mph - N/A   Overcast
6:15 PM 64.4 °F 60.8 °F 88% 30.14 in 10.0 mi WSW 6.9 mph - N/A   Overcast
6:35 PM 64.4 °F 60.8 °F 88% 30.14 in 10.0 mi SW 5.8 mph - N/A   Overcast
6:55 PM 62.6 °F 59.0 °F 88% 30.14 in 10.0 mi SW 5.8 mph - N/A   Mostly Cloudy
7:15 PM 62.6 °F 59.0 °F 88% 30.14 in 10.0 mi SW 3.5 mph - N/A   Scattered Clouds
7:35 PM 60.8 °F 59.0 °F 94% 30.14 in 10.0 mi Calm Calm - N/A   Clear
7:55 PM 60.8 °F 59.0 °F 94% 30.14 in 10.0 mi South 3.5 mph - N/A   Clear
8:15 PM 60.8 °F 57.2 °F 88% 30.15 in 10.0 mi SSW 4.6 mph - N/A   Clear
8:35 PM 60.8 °F 57.2 °F 88% 30.15 in 10.0 mi SSW 4.6 mph - N/A   Mostly Cloudy
8:55 PM 60.8 °F 57.2 °F 88% 30.15 in 10.0 mi SW 4.6 mph - N/A   Overcast
9:15 PM 59.0 °F 57.2 °F 94% 30.15 in 10.0 mi Calm Calm - N/A   Mostly Cloudy
9:35 PM 59.0 °F 57.2 °F 94% 30.15 in 10.0 mi Calm Calm - N/A   Scattered Clouds
9:55 PM 57.2 °F 55.4 °F 94% 30.15 in 10.0 mi SSE 3.5 mph - N/A   Partly Cloudy
10:15 PM 57.2 °F 57.2 °F 100% 30.15 in 10.0 mi SE 4.6 mph - N/A   Partly Cloudy
10:35 PM 57.2 °F 57.2 °F 100% 30.15 in 10.0 mi SE 3.5 mph - N/A   Mostly Cloudy
10:55 PM 57.2 °F 55.4 °F 94% 30.15 in 10.0 mi SE 4.6 mph - N/A   Overcast
11:15 PM 57.2 °F 55.4 °F 94% 30.15 in 10.0 mi SE 3.5 mph - N/A   Overcast
11:35 PM 57.2 °F 57.2 °F 100% 30.15 in 10.0 mi SE 4.6 mph - N/A   Overcast
11:55 PM 55.4 °F 55.4 °F 100% 30.15 in 10.0 mi SE 4.6 mph - N/A   Partly Cloudy